Regional Weather Roundup
Issued by NWS Grand Forks, ND

Home | Current Version | Previous Version | Graphics & Text | Print | Product List | Glossary On
Versions: 1 2 3 4 5 6 7 8 9 10 11 12 13 14 15 16 17 18 19 20 21 22 23 24 25 26 27 28 29 30 31 32 33 34 35 36 37 38 39 40 41 42 43 44 45 46 47 48 49 50
498
ASUS43 KFGF 171631
RWRFGF
PRAIRIE TO PINES  WEATHER ROUNDUP
NATIONAL WEATHER SERVICE EASTERN NORTH DAKOTA/GRAND FORKS ND
1000 AM CST TUE JAN 17 2017

 **SATELLITE DATA USED TO AUGMENT SKY COVER AT AUTOMATED STATIONS**
 *****  WEATHER ACROSS EASTERN NORTH DAKOTA  *****

CITY           SKY/WX    TMP DP  RH WIND       PRES   REMARKS
GRAND FORKS    FAIR      11   6  81 S10       29.92S WCI  -3
GRAND FRKS AFB FAIR      10   5  80 S8        29.91S WCI  -1
DEVILS LAKE    FAIR       9   6  88 S3        29.87F
FARGO          FAIR      10   7  87 S9        29.98R WCI  -3
WAHPETON ARPT  FAIR       9   5  85 CALM      30.01R
$$

 ***** WEATHER ACROSS CENTRAL AND WESTERN NORTH DAKOTA  *****

CITY           SKY/WX    TMP DP  RH WIND       PRES   REMARKS
BISMARCK       FAIR       5   2  87 SE5       29.94R WCI  -4
MINOT          FAIR      19  11  70 S8        29.79S WCI   9
JAMESTOWN      FAIR      14  11  87 W3        29.92S
MINOT AFB      FAIR      17   9  72 S12       29.76F WCI   4
GARRISON         N/A      9   5  84 S7        29.84F WCI  -2
WILLISTON      FAIR      17   9  70 S7        29.79F WCI   8
DICKINSON      FAIR      20  10  65 S15       29.81S WCI   6
HETTINGER      FAIR      16   6  65 W5        29.90S WCI   9
$$

 *****  OTHER AIRPORT OBSERVATIONS IN OUR AREA  *****

CITY           SKY/WX    TMP DP  RH WIND       PRES   REMARKS
WALHALLA       NOT AVBL
GRAFTON AIRPOR FAIR       9   7  92 S10       29.91F WCI  -6
VALLEY CITY AR FAIR       9   7  92 S5        29.96R WCI   0
CANDO          NOT AVBL
CAVALIER APRT    N/A     14  10  85 S7        29.85F WCI   4
GWINNER        FAIR      12  10  92 SW9       29.98S WCI   0
SHEYENNE NWR     N/A     11   6  79 SW3       29.95S
ROLLA            N/A    N/A N/A N/A MISG        N/A
 ***** THE ABOVE OBSERVATIONS ARE NON NWS ARE NOT QUALITY
       CONTROLLED AND MAY MIS-REPORT RAIN FOR SNOW...
$$

  *****  WEATHER ACROSS NORTHERN MINNESOTA  *****

CITY           SKY/WX    TMP DP  RH WIND       PRES   REMARKS
FLAG ISLAND    FAIR       1  -2  85 SE9       29.88F WCI -14
WARROAD        FAIR      10   7  85 S8        29.89S WCI  -1
ROSEAU         FAIR       9   3  78 S8        29.89S WCI  -4
HALLOCK        FAIR       5   1  85 S13       29.88F WCI -12
THF RVR FALLS  FLURRIES   8   5  87 S10       29.93S WCI  -6
BAUDETTE       FAIR       6   5  95 SW3       29.89S
WASKISH        FAIR      16  12  86 CALM      29.91R
CROOKSTON      FAIR       7   3  85 S8        29.95S WCI  -6
GREENBUSH NDAW   N/A      9   7  92 S8          N/A  WCI  -4
$$
  *****  WEATHER ACROSS CENTRAL AND WEST MINNESOTA  *****

CITY           SKY/WX    TMP DP  RH WIND       PRES   REMARKS
FOSSTON        FAIR      10   7  85 SW8       29.94R WCI  -1
BEMIDJI        FAIR       6   4  89 CALM      29.92S
PARK RAPIDS    FAIR       4   1  88 S3        29.93F FOG
ELBOW LAKE     LGT SNOW   8   6  91 CALM      29.99S
WADENA         FAIR       3   1  92 CALM      29.96R FOG
DETROIT LAKES  FAIR      10   9  92 S3        29.96R
MOORHEAD       FAIR       3   1  92 S6        29.99S WCI  -8
FERGUS FALLS   FAIR       7   3  85 S3        30.04R
MORRIS MN      FAIR      10   9  92 CALM      29.99S
STAPLES        FAIR       3   1  92 CALM      29.96F FOG
$$
  *****  WEATHER ELSEWHERE ACROSS MINNESOTA  *****

CITY           SKY/WX    TMP DP  RH WIND       PRES   REMARKS
DULUTH         FOG       28  25  88 CALM      29.93F VSB 1/8
INTRNTL FALLS  FAIR       7   4  87 CALM      29.91F
ELY            FAIR       9   7  92 CALM      29.93S
CLOQUET        FOG       25  21  86 CALM      29.94F VSB<1/4
WHEATON        FAIR      16  12  86 CALM      30.03R
BRAINERD       FAIR      11  10  96 CALM      29.96S FOG
HIBBING        FOG        6   5  95 CALM      29.94S VSB 1
ALEXANDRIA     FAIR      11  11 100 W3        29.97S
SAINT CLOUD    FOG       27  27 100 NW5       29.98S VSB 1/4 WCI  22
MINNEAPOLIS    CLOUDY    30  24  78 N7        29.98S WCI  23
$$

  *****  WEATHER ACROSS SOUTH DAKOTA  *****

CITY           SKY/WX    TMP DP  RH WIND       PRES   REMARKS
SIOUX FALLS    FAIR      16  13  88 W5        30.04R WCI   9
BROOKINGS      FAIR      17  13  84 CALM      30.00S
WATERTOWN      FAIR       4   3  96 SW3       29.98S
HURON          FAIR      11   9  92 CALM      30.04R
SISSETON         N/A     10   7  87 CALM      29.98R
ABERDEEN       FAIR       4  -1  80 S7        30.01S WCI  -8
MITCHELL       FAIR      16  12  84 W6        30.06S WCI   7
PIERRE         FAIR      14   9  80 CALM      30.00F
MOBRIDGE       FAIR      11   5  77 SE9       29.95S WCI  -2
RAPID CITY     FAIR      16   8  71 CALM      29.91F
$$

  *****  SOME WEATHER IN NEARBY STATES *****

CITY           SKY/WX    TMP DP  RH WIND       PRES   REMARKS
GLASGOW MT     FAIR      16  10  77 S12       29.73F WCI   3
GREAT FALLS MT FAIR      32  16  51 SW28      29.84R WCI  18
CHEYENNE WY      N/A    N/A N/A N/A MISG      30.03R
SCOTTSBLUFF NE FAIR      19  13  77 N3        30.05S
OMAHA NE       CLOUDY    27  22  81 NW9       30.10R WCI  18
DES MOINES IA  CLOUDY    35  33  92 NW14      30.02R FOG
DAVENPORT IA   CLOUDY    34  34 100 W14       29.93S FOG     WCI  25
CHICAGO IL     CLOUDY    37  36  96 W9        29.86R
EAU CLAIRE WI  CLOUDY    34  33  96 NE3       29.91S
LA CROSSE WI   CLOUDY    35  33  92 NW6       29.91R FOG
$$

  *****  SOME NATIONAL WEATHER *****

CITY           SKY/WX    TMP DP  RH WIND       PRES   REMARKS
LA GUARDIA NY  LGT RAIN  42  34  73 E6        30.20F
RALEIGH NC     CLOUDY    54  51  90 SW13      30.25S FOG
ATLANTA GA     PTSUNNY   65  54  67 SW9       30.24R
NEW ORLEANS LA PTSUNNY   72  69  90 S10       30.16S
OKLAHOMA CITY  FAIR      43  33  68 N14       30.18R
ALBUQUERQUE NM FAIR      39  36  89 NW7       30.16R
SALT LAKE CITY FAIR      22  19  89 N3        30.30R
LOS ANGELES CA FAIR      50  41  71 E3        30.12R
BOISE ID       FAIR       2  -2  83 CALM      30.35S FOG
SEATTLE WA     LGT RAIN  40  38  93 S5        29.77F
$$

*** WEATHER ACROSS MANITOBA...SASKATCHEWAN AND ONTARIO ***
                ***ONTARIO***

CITY           SKY/WX    TMP DP  RH WIND       PRES   REMARKS
GERALDTON      CLOUDY    23  21  93 VRB2      29.93F
THUNDER BAY    CLOUDY    27  27 100 SW7       29.98S FOG     WCI  19
SIOUX LOOKOUT  PTSUNNY   10   9  92 S6        29.86S WCI   1
TORONTO        LGT RAIN  34  32  93 E12G24    29.92F FOG
BIG TROUT LK   CLOUDY    19  16  86 S9        29.66F WCI   9
PICKLE LAKE    MOSUNNY   14  10  85 S10       29.81F WCI   1
DRYDEN         SUNNY     14  12  92 S8        29.85F WCI   3
KENORA         PTSUNNY   10   7  85 S10       29.84F WCI  -3
$$
                *** MANITOBA***

CITY           SKY/WX    TMP DP  RH WIND       PRES   REMARKS
BRANDON        PTSUNNY    9   5  85 W6        29.73F WCI  -1
DAUPHIN        CLEAR     32  16  51 SW15G22   29.57F WCI  22
ISLAND LAKE    MOCLDY    30  21  69 S9G17     29.55F WCI  22
PILOT MOUND      N/A     10   9  92 S13         N/A  WCI  -5
THE PAS        CLOUDY    32  19  59 S13       29.34F WCI  22
THOMPSON       CLOUDY    30  23  74 S8        29.28F WCI  23
WINNIPEG       MOSUNNY   10   7  85 S14       29.81F WCI  -5
LYNN LAKE      CLOUDY    28  27  93 SW10      29.14S WCI  19
CHURCHILL      CLOUDY    25  21  86 SW14      29.14F WCI  13
GILLAM         CLOUDY    32  25  74 SW13G23   29.30F WCI  22
$$
                ***SASKATCHEWAN***

CITY           SKY/WX    TMP DP  RH WIND       PRES   REMARKS
ESTEVAN        MOCLDY    18  10  73 SW17G26   29.67F WCI   2
KINDERSLEY     CLOUDY    37  30  75 SW14      29.47R
LLOYDMINSTER   CLOUDY    34  28  80 W9        29.37S
PRINCE ALBERT  CLOUDY    25  19  80 SW3       29.38R
REGINA         MOCLDY    28  21  74 S9        29.55F WCI  20
YORKTON        CLEAR     23  14  68 S15G21    29.51F WCI  10
N. BATTLEFORD  CLEAR     30  25  80 SW3       29.44R
LA RONGE       PTCLDY    27  19  74 SW7       29.25S WCI  19
SASKATOON      MOCLDY    30  25  80 SW13      29.43S WCI  20
SWIFT CURRENT  CLEAR     37  28  70 SW22      29.54S
$$
NOTE: THESE ARE AUTOMATED STATIONS WITH LIMITED QUALITY CONTROL
      "FAIR" INDICATES FEW OR NO CLOUDS BELOW 12,000 FEET WITH NO
      SIGNIFICANT WEATHER AND/OR OBSTRUCTIONS TO VISIBILITY.
      SKY/WX - SKY CONDITION AND SIGNIFICANT WEATHER.
      TMP - AIR TEMPERATURE.    DP   - DEWPOINT TEMPERATURE.
      RH  - RELATIVE HUMIDITY.  PRES - PRESSURE.
      HX  - HEAT INDEX.         WCI  - WIND CHILL INDEX.
$




USA.gov is the U.S. government's official web portal to all federal, state and local government web resources and services.